Location: Vancouver
(49.2500°N, 123.1330°W)
Time: 11:56:44
(UTC-07:00)

AO-27 - Visible Passes

Search period start: 25 October 2014 00:00
Search period end: 03 November 2014 23:00
Orbit: 787 x 798 km, 98.7° (Epoch: 25 October)

Date Brightness Start Highest point End Pass type
(mag) Time Alt. Az. Time Alt. Az. Time Alt. Az.
25 Oct 10.2 03:31:52 10° NNE 03:32:42 15° NNE 03:32:42 15° NNE visible
25 Oct 9.7 05:12:12 10° N 05:13:28 15° NNW 05:13:28 15° NNW visible
26 Oct 10.6 03:03:15 10° NNE 03:03:25 11° NNE 03:03:25 11° NNE visible
26 Oct 9.7 04:42:54 10° N 04:44:11 17° N 04:44:11 17° N visible
27 Oct 9.9 04:13:50 10° N 04:14:54 16° N 04:14:54 16° N visible
28 Oct 10.2 03:44:55 10° NNE 03:45:37 14° NNE 03:45:37 14° NNE visible
28 Oct 9.8 05:25:37 10° NNW 05:26:23 13° NNW 05:26:23 13° NNW visible
29 Oct 10.6 03:16:12 10° NNE 03:16:20 11° NNE 03:16:20 11° NNE visible
29 Oct 9.9 04:56:10 10° N 04:57:06 14° N 04:57:06 14° N visible
30 Oct 10.0 04:27:00 10° N 04:27:49 14° N 04:27:49 14° N visible
31 Oct 10.3 03:58:01 10° NNE 03:58:31 13° NNE 03:58:31 13° NNE visible
31 Oct 9.9 05:39:09 10° NNW 05:39:17 10° NNW 05:39:17 10° NNW visible
01 Nov 10.6 03:29:12 10° NNE 03:29:14 10° NNE 03:29:14 10° NNE visible
01 Nov 10.0 05:09:29 10° N 05:10:00 12° NNW 05:10:00 12° NNW visible
02 Nov 10.1 03:40:12 10° N 03:40:43 13° N 03:40:43 13° N visible
03 Nov 10.3 03:11:08 10° N 03:11:25 12° N 03:11:25 12° N visible
